Grand Forks AFB, ND

6:23 AM CDT on May 29, 2017 (GMT -0500)
Grand Forks Air Force Base

Weather History for KRDR - December, 2012

Change the Weather History Date:

Saturday, December 8, 2012

  Actual Average Record
Temperature  
Mean Temperature 12 °F -  
Max Temperature 18 °F 26 °F 42 °F (2015)
Min Temperature 5 °F 10 °F -19 °F (2013)
Degree Days  
Heating Degree Days 54    
Moisture  
Dew Point 8 °F    
Average Humidity 83    
Maximum Humidity 86    
Minimum Humidity 73    
Precipitation  
Precipitation 0.00 in - - ()
Sea Level Pressure  
Sea Level Pressure 30.04 in    
Wind  
Wind Speed 8 mph (NE)    
Max Wind Speed 21 mph    
Max Gust Speed 26 mph    
Visibility 6 miles    
Events Snow    
Averages and records for this station are not official NWS values.
T = Trace of Precipitation, MM = Missing Value Source: NWS Daily Summary

Daily Weather History Graph

Daily Weather History Graph

Search for Another Location

Airport or City:

Trip Planner

Search our weather history database for the weather conditions in past years. The results will help you decide how hot, cold, wet, or windy it might be!

Date:

Astronomy

Dec. 08, 2012 Rise Set
Actual Time 8:06 AM CST 4:36 PM CST
Civil Twilight 7:30 AM CST 5:12 PM CST
Nautical Twilight 6:51 AM CST 5:52 PM CST
Astronomical Twilight 6:13 AM CST 6:29 PM CST
Moon 2:13 AM CST (12/8) 1:24 PM CST (12/8)
Length of Visible Light 9h 41m
Length of Day
8h 29m
Waning Crescent, 28% of the Moon is Illuminated
Dec 8
Waning Crescent
Dec 13
New
Dec 19
First Quarter
Dec 28
Full
Jan 4
Last Quarter

Hourly Weather History & Observations

Time (CST) Temp. Windchill Dew Point Humidity Pressure Visibility Wind Dir Wind Speed Gust Speed Precip Events Conditions
12:55 AM 8.6 °F -4.7 °F 3.0 °F 78% 30.09 in 10.0 mi ENE 9.2 mph - N/A   Overcast
1:55 AM 9.5 °F -0.3 °F 3.7 °F 77% 30.08 in 10.0 mi ENE 5.8 mph - N/A   Overcast
2:41 AM 10.4 °F -0.4 °F 3.2 °F 73% 30.06 in 10.0 mi ENE 6.9 mph - N/A Snow Light Snow
2:55 AM 10.0 °F 0.4 °F 4.3 °F 78% 30.06 in 10.0 mi East 5.8 mph - 0.00 in Snow Light Snow
3:07 AM 10.4 °F 4.0 °F 5.0 °F 79% 30.06 in 10.0 mi ENE 3.5 mph - N/A   Overcast
3:23 AM 10.4 °F 0.8 °F 5.0 °F 79% 30.05 in 10.0 mi ENE 5.8 mph - N/A Snow Light Snow
3:38 AM 10.4 °F 0.8 °F 5.0 °F 79% 30.05 in 6.0 mi ENE 5.8 mph - N/A Snow Light Snow
3:48 AM 10.4 °F 4.0 °F 5.0 °F 79% 30.05 in 7.0 mi East 3.5 mph - N/A Snow Light Snow
3:55 AM 10.6 °F 2.5 °F 5.0 °F 78% 30.05 in 8.0 mi East 4.6 mph - 0.00 in Snow Light Snow
4:02 AM 10.4 °F 2.2 °F 5.0 °F 79% 30.04 in 10.0 mi East 4.6 mph - N/A   Overcast
4:06 AM 10.4 °F 2.2 °F 5.0 °F 79% 30.04 in 10.0 mi ENE 4.6 mph - N/A Snow Light Snow
4:55 AM 11.8 °F 3.9 °F 6.8 °F 80% 30.02 in 10.0 mi East 4.6 mph - 0.00 in Snow Light Snow
5:15 AM 12.2 °F 2.9 °F 8.6 °F 85% 30.01 in 10.0 mi East 5.8 mph - N/A Snow Light Snow
5:31 AM 12.2 °F 2.9 °F 8.6 °F 85% 30.01 in 10.0 mi East 5.8 mph - N/A Snow Light Snow
5:36 AM 14.0 °F 6.5 °F 8.6 °F 79% 30.01 in 10.0 mi East 4.6 mph - N/A   Overcast
5:55 AM 13.6 °F 6.0 °F 9.0 °F 82% 30.00 in 10.0 mi East 4.6 mph - 0.00 in   Overcast
6:03 AM 14.0 °F 3.9 °F 8.6 °F 79% 30.00 in 10.0 mi East 6.9 mph - N/A   Overcast
6:16 AM 14.0 °F 5.1 °F 8.6 °F 79% 29.99 in 10.0 mi ESE 5.8 mph - N/A Snow Light Snow
6:32 AM 14.0 °F 3.9 °F 10.4 °F 86% 29.99 in 4.0 mi ESE 6.9 mph - N/A Snow Light Snow
6:34 AM 14.0 °F 5.1 °F 10.4 °F 86% 29.99 in 3.0 mi ESE 5.8 mph - N/A Snow Light Snow
6:35 AM 14.0 °F 5.1 °F 10.4 °F 86% 29.99 in 2.5 mi East 5.8 mph - N/A Snow Light Snow
6:40 AM 14.0 °F 5.1 °F 10.4 °F 86% 29.99 in 2.0 mi ESE 5.8 mph - N/A Snow Light Snow
6:43 AM 14.0 °F 5.1 °F 10.4 °F 86% 29.99 in 1.8 mi ESE 5.8 mph - N/A Snow Light Snow
6:44 AM 14.0 °F 6.5 °F 10.4 °F 86% 29.99 in 1.8 mi ESE 4.6 mph - N/A Snow Light Snow
6:55 AM 14.5 °F 7.1 °F 10.8 °F 85% 29.99 in 1.5 mi ESE 4.6 mph - 0.00 in Snow Light Snow
6:57 AM 14.0 °F 8.2 °F 10.4 °F 86% 29.99 in 1.8 mi East 3.5 mph - N/A Snow Light Snow
7:00 AM 14.0 °F 6.5 °F 10.4 °F 86% 29.99 in 2.0 mi East 4.6 mph - N/A Snow Light Snow
7:18 AM 15.8 °F 8.6 °F 12.2 °F 86% 29.98 in 2.0 mi ESE 4.6 mph - N/A Snow Light Snow
7:21 AM 15.8 °F 8.6 °F 12.2 °F 86% 29.98 in 2.5 mi ESE 4.6 mph - N/A Snow Light Snow
7:22 AM 15.8 °F 8.6 °F 12.2 °F 86% 29.98 in 3.0 mi ESE 4.6 mph - N/A Snow Light Snow
7:31 AM 15.8 °F - 12.2 °F 86% 29.99 in 7.0 mi Calm Calm - N/A Snow Light Snow
7:41 AM 15.8 °F 8.6 °F 12.2 °F 86% 29.98 in 5.0 mi East 4.6 mph - N/A Snow Light Snow
7:55 AM 15.6 °F 7.0 °F 11.8 °F 85% 29.98 in 6.0 mi East 5.8 mph - 0.00 in Snow Light Snow
8:03 AM 15.8 °F 10.2 °F 12.2 °F 86% 29.98 in 4.0 mi ESE 3.5 mph - N/A Snow Light Snow
8:14 AM 15.8 °F - 12.2 °F 86% 29.98 in 4.0 mi Calm Calm - N/A Snow Light Snow
8:15 AM 15.8 °F - 12.2 °F 86% 29.98 in 4.0 mi Calm Calm - N/A Snow Light Snow
8:21 AM 15.8 °F 8.6 °F 12.2 °F 86% 29.98 in 4.0 mi East 4.6 mph - N/A Snow Light Snow
8:25 AM 15.8 °F 8.6 °F 12.2 °F 86% 29.98 in 4.0 mi East 4.6 mph - N/A Snow Light Snow
8:55 AM 16.3 °F 10.8 °F 12.7 °F 86% 29.98 in 5.0 mi ENE 3.5 mph - 0.00 in Snow Light Snow
9:05 AM 15.8 °F 10.2 °F 12.2 °F 86% 29.98 in 5.0 mi ENE 3.5 mph - N/A Snow Light Snow
9:17 AM 17.6 °F 12.3 °F 14.0 °F 86% 29.98 in 2.5 mi NNE 3.5 mph - N/A Snow Light Snow
9:21 AM 17.6 °F 10.7 °F 14.0 °F 86% 29.99 in 1.8 mi North 4.6 mph - N/A Snow Light Snow
9:25 AM 17.6 °F 10.7 °F 14.0 °F 86% 29.99 in 1.8 mi North 4.6 mph - N/A Snow Light Snow
9:26 AM 17.6 °F 10.7 °F 14.0 °F 86% 29.99 in 2.0 mi North 4.6 mph - N/A Snow Light Snow
9:39 AM 15.8 °F 7.2 °F 12.2 °F 86% 29.99 in 3.0 mi North 5.8 mph - N/A Snow Light Snow
9:55 AM 16.5 °F 6.9 °F 13.1 °F 86% 29.99 in 6.0 mi North 6.9 mph - 0.00 in Snow Light Snow
10:13 AM 17.6 °F 7.3 °F 14.0 °F 86% 29.99 in 8.0 mi North 8.1 mph - N/A Snow Light Snow
10:55 AM 18.3 °F 10.2 °F 14.2 °F 84% 29.99 in 6.0 mi NNE 5.8 mph - 0.00 in Snow Light Snow
11:22 AM 17.6 °F 8.2 °F 14.0 °F 86% 29.99 in 10.0 mi North 6.9 mph - N/A Snow Light Snow
11:55 AM 18.1 °F 8.9 °F 13.8 °F 83% 29.99 in 10.0 mi NNW 6.9 mph - 0.00 in Snow Light Snow
12:32 PM 17.6 °F 6.4 °F 12.2 °F 79% 29.98 in 10.0 mi North 9.2 mph - N/A   Overcast
12:55 PM 16.9 °F 7.4 °F 12.9 °F 84% 29.98 in 10.0 mi North 6.9 mph - 0.00 in   Overcast
1:05 PM 15.8 °F 4.2 °F 12.2 °F 86% 29.98 in 10.0 mi North 9.2 mph - N/A Snow Light Snow
1:55 PM 14.4 °F 0.2 °F 10.2 °F 84% 29.98 in 6.0 mi North 12.7 mph - 0.00 in Snow Light Snow
2:02 PM 14.0 °F 2.0 °F 10.4 °F 86% 29.98 in 2.5 mi North 9.2 mph - N/A Snow Light Snow
2:10 PM 14.0 °F 2.0 °F 10.4 °F 86% 29.98 in 3.0 mi North 9.2 mph - N/A Snow Light Snow
2:27 PM 15.8 °F 4.2 °F 10.4 °F 79% 29.99 in 4.0 mi North 9.2 mph - N/A Snow Light Snow
2:55 PM 14.4 °F -1.0 °F 10.0 °F 83% 29.99 in 10.0 mi North 15.0 mph - 0.00 in Snow Light Snow
3:55 PM 12.9 °F -2.2 °F 8.8 °F 84% 30.00 in 10.0 mi North 13.8 mph - 0.00 in Snow Light Snow
3:58 PM 14.0 °F -0.2 °F 8.6 °F 79% 30.00 in 9.0 mi North 12.7 mph - N/A Snow Light Snow
4:21 PM 14.0 °F -2.0 °F 8.6 °F 79% 30.01 in 5.0 mi North 16.1 mph - N/A Snow Light Snow
4:49 PM 12.2 °F -3.7 °F 8.6 °F 85% 30.03 in 9.0 mi NNE 15.0 mph - N/A Snow Light Snow
4:55 PM 12.9 °F -0.9 °F 8.8 °F 84% 30.03 in 10.0 mi NNE 11.5 mph - 0.00 in Snow Light Snow
4:57 PM 12.2 °F -1.0 °F 8.6 °F 85% 30.04 in 9.0 mi North 10.4 mph - N/A Snow Light Snow
5:02 PM 12.2 °F -2.5 °F 8.6 °F 85% 30.04 in 8.0 mi North 12.7 mph - N/A Snow Light Snow
5:26 PM 12.2 °F -5.3 °F 6.8 °F 79% 30.05 in 7.0 mi North 18.4 mph 23.0 mph N/A Snow Light Snow
5:39 PM 10.4 °F -6.6 °F 6.8 °F 85% 30.05 in 9.0 mi North 16.1 mph - N/A Snow Light Snow
5:55 PM 10.9 °F -5.9 °F 6.6 °F 83% 30.06 in 8.0 mi North 16.1 mph 23.0 mph 0.00 in Snow Light Snow
6:50 PM 10.4 °F -6.0 °F 6.8 °F 85% 30.07 in 9.0 mi North 15.0 mph 23.0 mph N/A Snow Light Snow
6:55 PM 11.1 °F -5.1 °F 6.6 °F 82% 30.08 in 9.0 mi North 15.0 mph 23.0 mph 0.00 in Snow Light Snow
7:05 PM 12.2 °F -4.3 °F 6.8 °F 79% 30.08 in 10.0 mi North 16.1 mph - N/A   Overcast
7:42 PM 12.2 °F -4.3 °F 6.8 °F 79% 30.09 in 8.0 mi NNE 16.1 mph 21.9 mph N/A   Overcast
7:46 PM 12.2 °F -4.3 °F 6.8 °F 79% 30.09 in 7.0 mi NNE 16.1 mph - N/A Snow Light Snow
7:55 PM 11.5 °F -6.3 °F 7.0 °F 82% 30.10 in 7.0 mi North 18.4 mph - 0.00 in Snow Light Snow
7:56 PM 12.2 °F -4.8 °F 6.8 °F 79% 30.10 in 8.0 mi North 17.3 mph 23.0 mph N/A   Overcast
8:10 PM 12.2 °F -4.3 °F 6.8 °F 79% 30.10 in 8.0 mi North 16.1 mph 24.2 mph N/A Snow Light Snow
8:24 PM 12.2 °F -4.3 °F 6.8 °F 79% 30.11 in 4.0 mi North 16.1 mph 24.2 mph N/A Snow Light Snow
8:55 PM 10.9 °F -7.0 °F 6.4 °F 82% 30.12 in 3.0 mi NNE 18.4 mph - 0.00 in Snow Light Snow
9:00 PM 10.4 °F -7.2 °F 6.8 °F 85% 30.12 in 4.0 mi North 17.3 mph - N/A Snow Light Snow
9:13 PM 10.4 °F -7.2 °F 6.8 °F 85% 30.12 in 7.0 mi North 17.3 mph 24.2 mph N/A   Overcast
9:26 PM 10.4 °F -7.7 °F 6.8 °F 85% 30.12 in 7.0 mi NNE 18.4 mph - N/A Snow Light Snow
9:38 PM 10.4 °F -8.6 °F 6.8 °F 85% 30.13 in 4.0 mi NNE 20.7 mph - N/A Snow Light Snow
9:55 PM 10.0 °F -7.6 °F 5.7 °F 83% 30.14 in 4.0 mi North 17.3 mph 24.2 mph 0.00 in Snow Light Snow
10:35 PM 8.6 °F -8.9 °F 3.2 °F 79% 30.16 in 4.0 mi North 16.1 mph - N/A Snow Light Snow
10:55 PM 7.3 °F -11.7 °F 2.3 °F 80% 30.16 in 6.0 mi NNE 18.4 mph 25.3 mph 0.00 in Snow Light Snow
11:08 PM 6.8 °F -12.4 °F 1.4 °F 79% 30.17 in 5.0 mi North 18.4 mph 26.5 mph N/A Snow Light Snow
11:30 PM 6.8 °F -12.4 °F 1.4 °F 79% 30.18 in 4.0 mi North 18.4 mph - N/A Snow Light Snow
11:35 PM 6.8 °F -11.8 °F 1.4 °F 79% 30.18 in 4.0 mi North 17.3 mph 24.2 mph N/A Snow Light Snow
11:49 PM 5.0 °F -14.7 °F 1.4 °F 85% 30.19 in 5.0 mi North 18.4 mph 25.3 mph N/A Snow Light Snow
11:55 PM 5.7 °F -13.2 °F 0.5 °F 79% 30.19 in 5.0 mi North 17.3 mph - 0.00 in Snow Light Snow
11:56 PM 5.0 °F -14.7 °F -0.4 °F 78% 30.19 in 5.0 mi NNE 18.4 mph - N/A Snow Light Snow
11:59 PM 5.0 °F -15.2 °F -0.4 °F 78% 30.19 in 4.0 mi NNE 19.6 mph 26.5 mph N/A Snow Light Snow